M I D A S
Marine Information and Data Acquisition System
Tripno 595 of the Zeeleeuw from 2003-09-22 06:35:02 to 2003-09-22 13:17:30
Back to CruiseResearch ActivitiesStationsMapUnderway DataData graphs

EquipmentUnitsComments
TimeDGPSUTC
LatitudeDGPSDM.mWGS84
LongitudeDGPSDM.mWGS84
SpeedMeteo Stationm/sRelative wind speed
DirectionMeteo StationdegRelative wind direction
TemperatureMeteo Stationdeg CelciusAir temperature
PressureMeteo StationPaAtmospheric pressure
HumidityMeteo Station%Relative humidity
Missing or incorrect values are displayed as -999
Metereological data collected by the RV Zeeleeuw from 2003-09-22 06:35:02 to 2003-09-22 13:17:30
                                                                                    Next 1000 lines
Time Latitude Longitude Speed Direction Temperature Pressure Humidity
2003-09-22 06:35:10 51°14.31 2°55.18 5.2 337 17.2 100790 68
2003-09-22 06:35:14 51°14.31 2°55.16 3.8 321 17.2 100790 68
2003-09-22 06:35:18 51°14.32 2°55.15 6 41 17.2 100800 68
2003-09-22 06:35:24 51°14.33 2°55.13 6.1 310 17.2 100800 68
2003-09-22 06:35:30 51°14.34 2°55.1 8.1 308 17.2 100800 68
2003-09-22 06:35:34 51°14.35 2°55.09 5.2 309 17.2 100790 68
2003-09-22 06:35:38 51°14.36 2°55.07 5.5 321 17.2 100790 68
2003-09-22 06:35:44 51°14.37 2°55.05 2.8 306 17.3 100790 68
2003-09-22 06:35:48 51°14.38 2°55.03 6.3 294 17.3 100790 68
2003-09-22 06:35:54 51°14.39 2°55.01 8.2 300 17.3 100790 68
2003-09-22 06:35:58 51°14.4 2°55 6.4 293 17.3 100790 68
2003-09-22 06:36:04 51°14.41 2°54.98 7 309 17.3 100790 68
2003-09-22 06:36:10 51°14.43 2°54.95 6.9 294 17.3 100790 68
2003-09-22 06:36:14 51°14.44 2°54.94 6 291 17.3 100790 68
2003-09-22 06:36:18 51°14.45 2°54.93 5 296 17.3 100790 68
2003-09-22 06:36:24 51°14.46 2°54.91 5.2 302 17.3 100790 68
2003-09-22 06:36:28 51°14.47 2°54.9 5.9 300 17.3 100790 68
2003-09-22 06:36:34 51°14.49 2°54.88 6.1 306 17.3 100790 68
2003-09-22 06:36:38 51°14.5 2°54.86 6.5 302 17.3 100790 67
2003-09-22 06:36:44 51°14.52 2°54.84 6.5 288 17.4 100790 68
2003-09-22 06:36:50 51°14.54 2°54.82 7 304 17.4 100790 68
2003-09-22 06:36:54 51°14.55 2°54.81 6.4 297 17.4 100790 68
2003-09-22 06:36:58 51°14.56 2°54.8 6.4 280 17.4 100790 68
2003-09-22 06:37:04 51°14.58 2°54.78 5.4 300 17.4 100790 68
2003-09-22 06:37:08 51°14.59 2°54.77 5.8 291 17.4 100790 68
2003-09-22 06:37:14 51°14.61 2°54.75 5.7 280 17.4 100790 68
2003-09-22 06:37:18 51°14.62 2°54.74 5.9 278 17.4 100780 68
2003-09-22 06:37:24 51°14.64 2°54.72 5.6 289 17.4 100790 68
2003-09-22 06:37:28 51°14.65 2°54.71 6.7 293 17.4 100790 68
2003-09-22 06:37:34 51°14.67 2°54.69 7.1 295 17.4 100790 68
2003-09-22 06:37:38 51°14.68 2°54.68 6.7 298 17.4 100790 68
2003-09-22 06:37:44 51°14.7 2°54.66 5.7 295 17.4 100790 68
2003-09-22 06:37:50 51°14.72 2°54.64 5.2 280 17.4 100780 68
2003-09-22 06:37:54 51°14.73 2°54.63 4.8 287 17.4 100780 68
2003-09-22 06:37:58 51°14.74 2°54.61 5.1 305 17.4 100780 68
2003-09-22 06:38:04 51°14.76 2°54.59 4.9 299 17.5 100790 68
2003-09-22 06:38:08 51°14.77 2°54.58 5.3 302 17.5 100790 68
2003-09-22 06:38:14 51°14.79 2°54.56 5.9 301 17.5 100790 67
2003-09-22 06:38:18 51°14.8 2°54.55 4.5 304 17.5 100790 67
2003-09-22 06:38:24 51°14.82 2°54.53 5.3 298 17.5 100780 67
2003-09-22 06:38:30 51°14.84 2°54.51 5.3 294 17.5 100780 67
2003-09-22 06:38:34 51°14.86 2°54.5 5.4 290 17.5 100780 68
2003-09-22 06:38:38 51°14.87 2°54.49 5 304 17.5 100780 68
2003-09-22 06:38:44 51°14.89 2°54.47 5.7 297 17.5 100780 69
2003-09-22 06:38:48 51°14.9 2°54.45 6.3 291 17.5 100780 69
2003-09-22 06:38:54 51°14.92 2°54.44 5.9 305 17.5 100780 69
2003-09-22 06:38:58 51°14.93 2°54.42 6.1 302 17.5 100780 68
2003-09-22 06:39:04 51°14.95 2°54.4 6.5 289 17.5 100780 68
2003-09-22 06:39:08 51°14.96 2°54.39 6.1 291 17.5 100780 68
2003-09-22 06:39:14 51°14.98 2°54.37 6 288 17.5 100780 68
2003-09-22 06:39:18 51°15 2°54.36 6.4 291 17.5 100780 68
2003-09-22 06:39:24 51°15.01 2°54.34 6.4 287 17.5 100780 68
2003-09-22 06:39:28 51°15.03 2°54.33 6.4 285 17.5 100780 68
2003-09-22 06:39:34 51°15.05 2°54.31 7 282 17.6 100780 69
2003-09-22 06:39:38 51°15.06 2°54.29 5.8 279 17.6 100780 69
2003-09-22 06:39:44 51°15.08 2°54.28 6 279 17.5 100780 69
2003-09-22 06:39:46 51°15.09 2°54.27 5.7 288 17.5 100780 69
2003-09-22 06:39:54 51°15.11 2°54.24 6.2 288 17.6 100790 69
2003-09-22 06:39:58 51°15.12 2°54.23 6.3 277 17.6 100790 69
2003-09-22 06:40:04 51°15.14 2°54.21 6.5 275 17.6 100790 69
2003-09-22 06:40:08 51°15.16 2°54.2 5 289 17.6 100780 68
2003-09-22 06:40:14 51°15.18 2°54.18 6.1 283 17.6 100780 68
2003-09-22 06:40:18 51°15.19 2°54.17 5.7 293 17.6 100780 68
2003-09-22 06:40:24 51°15.21 2°54.15 6.2 286 17.6 100780 68
2003-09-22 06:40:28 51°15.22 2°54.13 6.7 281 17.6 100780 68
2003-09-22 06:40:34 51°15.24 2°54.11 6.4 282 17.6 100780 69
2003-09-22 06:40:38 51°15.25 2°54.1 7.5 275 17.6 100780 69
2003-09-22 06:40:44 51°15.27 2°54.08 9.2 269 17.6 100780 69
2003-09-22 06:40:48 51°15.28 2°54.07 6.5 277 17.6 100780 69
2003-09-22 06:40:54 51°15.3 2°54.05 5.9 280 17.6 100780 69
2003-09-22 06:40:58 51°15.32 2°54.04 7 281 17.6 100780 69
2003-09-22 06:41:04 51°15.34 2°54.02 8.5 273 17.6 100780 68
2003-09-22 06:41:08 51°15.35 2°54 7.8 282 17.6 100780 68
2003-09-22 06:41:14 51°15.37 2°53.98 7.6 282 17.6 100780 69
2003-09-22 06:41:18 51°15.38 2°53.97 6.6 284 17.6 100780 69
2003-09-22 06:41:24 51°15.4 2°53.95 6.3 294 17.6 100770 69
2003-09-22 06:41:30 51°15.42 2°53.93 7.1 288 17.6 100770 69
2003-09-22 06:41:34 51°15.43 2°53.91 6.2 291 17.6 100770 69
2003-09-22 06:41:38 51°15.44 2°53.9 7.1 290 17.6 100770 69
2003-09-22 06:41:44 51°15.46 2°53.88 7.5 277 17.6 100770 69
2003-09-22 06:41:48 51°15.48 2°53.87 7.1 294 17.7 100780 69
2003-09-22 06:41:54 51°15.5 2°53.85 7.1 282 17.7 100770 69
2003-09-22 06:41:58 51°15.51 2°53.84 6.2 275 17.7 100770 69
2003-09-22 06:42:04 51°15.53 2°53.82 5.9 283 17.7 100780 69
2003-09-22 06:42:10 51°15.55 2°53.8 7.6 274 17.7 100780 69
2003-09-22 06:42:14 51°15.56 2°53.79 6.4 279 17.7 100780 69
2003-09-22 06:42:18 51°15.58 2°53.78 6.9 263 17.7 100770 68
2003-09-22 06:42:24 51°15.6 2°53.76 5.9 295 17.7 100770 68
2003-09-22 06:42:28 51°15.61 2°53.75 5.5 286 17.7 100770 68
2003-09-22 06:42:34 51°15.63 2°53.73 6.4 281 17.7 100770 68
2003-09-22 06:42:38 51°15.64 2°53.72 6.4 277 17.7 100770 68
2003-09-22 06:42:44 51°15.66 2°53.7 6.3 275 17.7 100770 69
2003-09-22 06:42:48 51°15.68 2°53.69 6.5 281 17.7 100770 69
2003-09-22 06:42:54 51°15.7 2°53.67 6.7 285 17.7 100780 69
2003-09-22 06:42:58 51°15.71 2°53.66 6.5 274 17.7 100780 69
2003-09-22 06:43:04 51°15.73 2°53.64 7.2 274 17.7 100770 69
2003-09-22 06:43:08 51°15.74 2°53.63 7.1 265 17.7 100770 69
2003-09-22 06:43:14 51°15.76 2°53.61 6.6 292 17.7 100770 69
2003-09-22 06:43:18 51°15.78 2°53.6 6.7 279 17.7 100770 69
2003-09-22 06:43:24 51°15.79 2°53.58 6.7 281 17.7 100770 69
2003-09-22 06:43:28 51°15.81 2°53.57 7.6 286 17.7 100770 69
2003-09-22 06:43:34 51°15.83 2°53.55 7.6 278 17.7 100770 69
2003-09-22 06:43:38 51°15.84 2°53.54 7.4 286 17.8 100780 69
2003-09-22 06:43:44 51°15.86 2°53.52 8.3 275 17.8 100770 68
2003-09-22 06:43:48 51°15.87 2°53.51 7.9 277 17.8 100770 68
2003-09-22 06:43:54 51°15.89 2°53.49 6.8 279 17.8 100770 68
2003-09-22 06:43:58 51°15.91 2°53.47 6.8 281 17.7 100770 69
2003-09-22 06:44:04 51°15.93 2°53.45 5.9 288 17.8 100770 68
2003-09-22 06:44:08 51°15.94 2°53.44 6.5 282 17.8 100770 68
2003-09-22 06:44:14 51°15.96 2°53.42 7.2 280 17.8 100770 68
2003-09-22 06:44:18 51°15.97 2°53.41 5.5 277 17.8 100770 68
2003-09-22 06:44:24 51°15.99 2°53.39 6.3 275 17.8 100770 69
2003-09-22 06:44:28 51°16 2°53.38 7 279 17.8 100770 69
2003-09-22 06:44:34 51°16.02 2°53.36 7 279 17.8 100780 69
2003-09-22 06:44:38 51°16.04 2°53.35 5.6 288 17.8 100780 69
2003-09-22 06:44:44 51°16.06 2°53.33 6.6 284 17.8 100770 69
2003-09-22 06:44:48 51°16.07 2°53.32 6.2 273 17.8 100770 69
2003-09-22 06:44:54 51°16.09 2°53.3 5.9 267 17.8 100770 69
2003-09-22 06:44:58 51°16.1 2°53.29 5.8 283 17.8 100770 69
2003-09-22 06:45:04 51°16.13 2°53.28 6.1 284 17.8 100780 69
2003-09-22 06:45:08 51°16.14 2°53.27 7.2 266 17.8 100780 69
2003-09-22 06:45:14 51°16.16 2°53.25 6.9 275 17.8 100780 70
2003-09-22 06:45:18 51°16.17 2°53.24 5.9 290 17.8 100780 70
2003-09-22 06:45:24 51°16.19 2°53.22 7.1 265 17.8 100770 70
2003-09-22 06:45:28 51°16.21 2°53.21 7 267 17.8 100770 70
2003-09-22 06:45:34 51°16.23 2°53.2 7.1 266 17.8 100780 69
2003-09-22 06:45:38 51°16.24 2°53.19 6.8 284 17.8 100780 69
2003-09-22 06:45:44 51°16.26 2°53.17 7.3 268 17.8 100780 70
2003-09-22 06:45:48 51°16.28 2°53.16 7.3 279 17.8 100780 70
2003-09-22 06:45:54 51°16.3 2°53.14 6.9 278 17.8 100780 70
2003-09-22 06:45:58 51°16.31 2°53.13 7.4 273 17.8 100770 69
2003-09-22 06:46:04 51°16.33 2°53.12 8 270 17.8 100780 69
2003-09-22 06:46:08 51°16.34 2°53.11 6.5 270 17.8 100780 69
2003-09-22 06:46:14 51°16.37 2°53.09 5.7 284 17.8 100780 70
2003-09-22 06:46:18 51°16.38 2°53.08 7.6 272 17.8 100780 70
2003-09-22 06:46:24 51°16.4 2°53.07 7.6 265 17.8 100780 69
2003-09-22 06:46:28 51°16.41 2°53.06 6.8 278 17.8 100780 69
2003-09-22 06:46:34 51°16.43 2°53.04 8.4 264 17.8 100780 69
2003-09-22 06:46:38 51°16.45 2°53.03 6.3 281 17.8 100780 69
2003-09-22 06:46:42 51°16.46 2°53.02 6.9 280 17.8 100780 69
2003-09-22 06:46:46 51°16.47 2°53.01 7.9 265 17.8 100780 69
2003-09-22 06:46:54 51°16.5 2°52.99 6.7 278 17.7 100780 69
2003-09-22 06:46:58 51°16.51 2°52.98 7.1 272 17.7 100780 69
2003-09-22 06:47:04 51°16.53 2°52.96 7 274 17.7 100780 70
2003-09-22 06:47:08 51°16.55 2°52.95 6.9   17.7 100780 70
2003-09-22 06:47:14 51°16.57 2°52.93 6.2 280 17.7 100780 69
2003-09-22 06:47:18 51°16.58 2°52.92 7 278 17.7 100780 69
2003-09-22 06:47:24 51°16.6 2°52.91 7.4 276 17.7 100780 69
2003-09-22 06:47:28 51°16.62 2°52.9 7.1 279 17.7 100780 70
2003-09-22 06:47:34 51°16.64 2°52.88 7.1 272 17.7 100780 70
2003-09-22 06:47:38 51°16.65 2°52.87 5.5 284 17.8 100780 71
2003-09-22 06:47:44 51°16.67 2°52.85 5.8 289 17.7 100780 70
2003-09-22 06:47:48 51°16.68 2°52.84 6.8 277 17.7 100780 70
2003-09-22 06:47:54 51°16.7 2°52.83 7 272 17.7 100780 70
2003-09-22 06:47:58 51°16.71 2°52.82 6.9 277 17.7 100780 70
2003-09-22 06:48:02 51°16.73 2°52.8 6.5 290 17.7 100780 71
2003-09-22 06:48:06 51°16.74 2°52.79 7.1   17.7 100780 71
2003-09-22 06:48:14 51°16.77 2°52.77 6.9 277 17.7 100780 70
2003-09-22 06:48:18 51°16.78 2°52.76 7.3 264 17.7 100780 70
2003-09-22 06:48:24 51°16.8 2°52.75 5.4 285 17.7 100770 70
2003-09-22 06:48:28 51°16.82 2°52.74 7.4 275 17.7 100770 70
2003-09-22 06:48:34 51°16.84 2°52.72 6.5 276 17.7 100770 70
2003-09-22 06:48:38 51°16.85 2°52.71 5.8 289 17.7 100770 71
2003-09-22 06:48:44 51°16.87 2°52.7 7.9 273 17.7 100770 71
2003-09-22 06:48:50 51°16.89 2°52.68 7.9 270 17.7 100770 71
2003-09-22 06:48:54 51°16.9 2°52.67 6.3 281 17.7 100770 71
2003-09-22 06:48:58 51°16.91 2°52.66 6.9 286 17.7 100770 71
2003-09-22 06:49:04 51°16.93 2°52.64 7.1 269 17.7 100780 71
2003-09-22 06:49:08 51°16.95 2°52.63 7.8 266 17.7 100780 71
2003-09-22 06:49:14 51°16.97 2°52.61 7.5 266 17.7 100780 71
2003-09-22 06:49:18 51°16.98 2°52.6 6.7 281 17.7 100770 71
2003-09-22 06:49:24 51°17 2°52.59 7.2 273 17.7 100770 71
2003-09-22 06:49:28 51°17.02 2°52.58 6.2 279 17.7 100770 71
2003-09-22 06:49:34 51°17.04 2°52.56 5.5 285 17.7 100770 70
2003-09-22 06:49:38 51°17.05 2°52.55 8.1 276 17.7 100770 70
2003-09-22 06:49:44 51°17.07 2°52.53 8.7 272 17.7 100770 70
2003-09-22 06:49:48 51°17.08 2°52.52 9 274 17.7 100770 71
2003-09-22 06:49:54 51°17.1 2°52.51 8.6 270 17.7 100770 71
2003-09-22 06:49:58 51°17.12 2°52.5 7.3 271 17.7 100780 71
2003-09-22 06:50:04 51°17.14 2°52.48 5.7 289 17.7 100770 71
2003-09-22 06:50:08 51°17.15 2°52.47 6.4   17.7 100770 71
2003-09-22 06:50:14 51°17.17 2°52.45 7.8 282 17.6 100770 69
2003-09-22 06:50:18 51°17.18 2°52.44 6.9 286 17.6 100770 69
2003-09-22 06:50:24 51°17.2 2°52.43 6.5 288 17.6 100770 70
2003-09-22 06:50:28 51°17.22 2°52.42 6.6 287 17.6 100770 70
2003-09-22 06:50:34 51°17.24 2°52.4 7.4 274 17.6 100770 71
2003-09-22 06:50:38 51°17.25 2°52.39 6.9 274 17.6 100770 71
2003-09-22 06:50:44 51°17.27 2°52.37 7.6 273 17.6 100770 71
2003-09-22 06:50:48 51°17.29 2°52.36 7.2 281 17.6 100770 71
2003-09-22 06:50:54 51°17.31 2°52.35 7.8 274 17.6 100780 71
2003-09-22 06:50:58 51°17.32 2°52.33 8.2 276 17.6 100780 71
2003-09-22 06:51:04 51°17.34 2°52.32 8.9 281 17.6 100770 70
2003-09-22 06:51:08 51°17.35 2°52.31 8.4   17.6 100770 70
2003-09-22 06:51:14 51°17.37 2°52.29 8.9 279 17.6 100770 71
2003-09-22 06:51:18 51°17.38 2°52.27 8.4 291 17.6 100770 71
2003-09-22 06:51:24 51°17.4 2°52.25 9.1 290 17.6 100770 70
2003-09-22 06:51:28 51°17.41 2°52.23 9.3 288 17.6 100770 70
2003-09-22 06:51:34 51°17.43 2°52.21 9.7 285 17.6 100770 70
2003-09-22 06:51:38 51°17.44 2°52.19 9.7 286 17.6 100770 71
2003-09-22 06:51:44 51°17.46 2°52.17 8.9 284 17.6 100760 71
2003-09-22 06:51:48 51°17.47 2°52.15 9.4 295 17.6 100760 71
2003-09-22 06:51:54 51°17.49 2°52.13 9.7 298 17.6 100760 71
2003-09-22 06:51:58 51°17.5 2°52.11 9.7 285 17.6 100760 71
2003-09-22 06:52:04 51°17.51 2°52.09 9.3 283 17.6 100760 71
2003-09-22 06:52:08 51°17.52 2°52.07 9.2   17.6 100760 71
2003-09-22 06:52:14 51°17.54 2°52.04 8.8 300 17.6 100760 71
2003-09-22 06:52:18 51°17.55 2°52.03 11.4 292 17.6 100760 71
2003-09-22 06:52:24 51°17.56 2°52 10.2 293 17.6 100760 71
2003-09-22 06:52:30 51°17.57 2°51.97 10.1 300 17.6 100760 71
2003-09-22 06:52:34 51°17.58 2°51.95 11.2 296 17.6 100760 72
2003-09-22 06:52:38 51°17.59 2°51.93 11.7 297 17.6 100760 72
2003-09-22 06:52:44 51°17.6 2°51.9 11.6 297 17.6 100760 72
2003-09-22 06:52:48 51°17.61 2°51.88 10.8 299 17.6 100760 72
2003-09-22 06:52:54 51°17.62 2°51.85 11.2 299 17.6 100760 72
2003-09-22 06:52:58 51°17.63 2°51.83 9.3 295 17.6 100760 72
2003-09-22 06:53:04 51°17.65 2°51.8 10.3 295 17.6 100750 71
2003-09-22 06:53:10 51°17.66 2°51.77 9.9 298 17.6 100750 71
2003-09-22 06:53:14 51°17.67 2°51.75 10.3 301 17.6 100750 71
2003-09-22 06:53:18 51°17.67 2°51.73 10.5 296 17.6 100750 72
2003-09-22 06:53:24 51°17.69 2°51.7 10.2 299 17.5 100760 72
2003-09-22 06:53:30 51°17.7 2°51.68 10 299 17.5 100760 72
2003-09-22 06:53:34 51°17.71 2°51.66 11 293 17.6 100750 72
2003-09-22 06:53:38 51°17.72 2°51.64 10.7 288 17.6 100750 72
2003-09-22 06:53:44 51°17.73 2°51.61 10.8 295 17.6 100750 72
2003-09-22 06:53:48 51°17.74 2°51.59 9.9 289 17.6 100750 72
2003-09-22 06:53:54 51°17.75 2°51.56 10.2 293 17.6 100760 72
2003-09-22 06:53:58 51°17.76 2°51.55 10.2 293 17.6 100760 72
2003-09-22 06:54:04 51°17.77 2°51.52 9.5 291 17.5 100750 72
2003-09-22 06:54:08 51°17.78 2°51.5 9.9   17.5 100750 72
2003-09-22 06:54:14 51°17.79 2°51.47 9.5 301 17.5 100750 72
2003-09-22 06:54:18 51°17.8 2°51.45 10.4 294 17.5 100750 72
2003-09-22 06:54:24 51°17.81 2°51.43 10.8 291 17.6 100750 73
2003-09-22 06:54:28 51°17.82 2°51.41 9.3 297 17.6 100750 73
2003-09-22 06:54:34 51°17.83 2°51.38 9.9 297 17.6 100750 73
2003-09-22 06:54:38 51°17.84 2°51.36 9.5 294 17.6 100750 73
2003-09-22 06:54:44 51°17.85 2°51.33 10.1 293 17.5 100750 72
2003-09-22 06:54:50 51°17.87 2°51.3 9.1 301 17.5 100750 72
2003-09-22 06:54:54 51°17.88 2°51.29 9.7 293 17.5 100750 73
2003-09-22 06:54:58 51°17.88 2°51.27 9.8 293 17.5 100750 73
2003-09-22 06:55:04 51°17.9 2°51.24 10.6 296 17.5 100750 72
2003-09-22 06:55:08 51°17.91 2°51.22 9.6   17.5 100750 72
2003-09-22 06:55:14 51°17.92 2°51.19 9.3 295 17.6 100750 73
2003-09-22 06:55:18 51°17.93 2°51.18 10.1 297 17.6 100750 73
2003-09-22 06:55:24 51°17.94 2°51.15 10 291 17.5 100750 73
2003-09-22 06:55:28 51°17.95 2°51.13 9.8 295 17.5 100750 73
2003-09-22 06:55:34 51°17.96 2°51.1 10.4 293 17.5 100750 73
2003-09-22 06:55:38 51°17.97 2°51.08 10 297 17.5 100750 73
2003-09-22 06:55:44 51°17.98 2°51.05 9.5 294 17.5 100750 73
2003-09-22 06:55:48 51°17.99 2°51.03 10.1 296 17.5 100750 73
2003-09-22 06:55:54 51°18 2°51.01 10 294 17.5 100750 73
2003-09-22 06:55:58 51°18.01 2°50.99 9.3 299 17.5 100750 73
2003-09-22 06:56:04 51°18.02 2°50.96 10.3 293 17.5 100750 73
2003-09-22 06:56:08 51°18.03 2°50.94 9   17.5 100750 73
2003-09-22 06:56:14 51°18.05 2°50.91 9.7 299 17.5 100750 73
2003-09-22 06:56:18 51°18.05 2°50.9 9.8 298 17.5 100750 73
2003-09-22 06:56:24 51°18.07 2°50.87 9.1 293 17.5 100750 73
2003-09-22 06:56:28 51°18.08 2°50.85 9.4 293 17.5 100750 73
2003-09-22 06:56:34 51°18.09 2°50.82 9.7 302 17.5 100750 73
2003-09-22 06:56:38 51°18.1 2°50.8 9.3 295 17.5 100750 73
2003-09-22 06:56:44 51°18.11 2°50.77 8.6 293 17.5 100750 72
2003-09-22 06:56:50 51°18.12 2°50.75 9.4 298 17.5 100750 72
2003-09-22 06:56:54 51°18.13 2°50.73 9.5 311 17.5 100740 72
2003-09-22 06:56:58 51°18.14 2°50.71 9 299 17.5 100740 72
2003-09-22 06:57:04 51°18.15 2°50.68 9.1 291 17.5 100740 72
2003-09-22 06:57:08 51°18.16 2°50.66 9.1   17.5 100740 72
2003-09-22 06:57:14 51°18.17 2°50.63 8.7 303 17.5 100740 73
2003-09-22 06:57:18 51°18.18 2°50.62 8.2 298 17.5 100740 73
2003-09-22 06:57:24 51°18.19 2°50.59 9.2 297 17.5 100750 73
2003-09-22 06:57:26 51°18.2 2°50.58 9 309 17.5 100750 73
2003-09-22 06:57:34 51°18.22 2°50.54 9.9 307 17.5 100740 74
2003-09-22 06:57:38 51°18.22 2°50.52 9.6 298 17.5 100740 74
2003-09-22 06:57:44 51°18.24 2°50.49 9.5 299 17.6 100740 74
2003-09-22 06:57:48 51°18.25 2°50.48 9.1 296 17.6 100740 74
2003-09-22 06:57:54 51°18.26 2°50.45 8.9 295 17.5 100740 74
2003-09-22 06:57:58 51°18.27 2°50.43 8.9 299 17.5 100740 74
2003-09-22 06:58:04 51°18.28 2°50.4 8.5 294 17.5 100740 73
2003-09-22 06:58:08 51°18.29 2°50.38 8   17.5 100740 73
2003-09-22 06:58:14 51°18.3 2°50.35 8 298 17.5 100740 73
2003-09-22 06:58:18 51°18.31 2°50.34 9 296 17.5 100740 73
2003-09-22 06:58:24 51°18.32 2°50.31 9.3 302 17.5 100740 73
2003-09-22 06:58:28 51°18.33 2°50.29 9.3 305 17.5 100730 73
2003-09-22 06:58:34 51°18.35 2°50.26 10 299 17.5 100750 73
2003-09-22 06:58:38 51°18.35 2°50.24 9.6 303 17.5 100750 73
2003-09-22 06:58:44 51°18.37 2°50.22 8.8 295 17.5 100730 73
2003-09-22 06:58:48 51°18.38 2°50.2 8.5 303 17.5 100730 73
2003-09-22 06:58:54 51°18.39 2°50.17 9.1 302 17.6 100730 73
2003-09-22 06:58:58 51°18.4 2°50.15 8.2 309 17.6 100730 73
2003-09-22 06:59:04 51°18.41 2°50.12 8.8 305 17.5 100730 73
2003-09-22 06:59:08 51°18.42 2°50.1 9.2   17.5 100730 73
2003-09-22 06:59:14 51°18.43 2°50.08 8.9 301 17.6 100740 74
2003-09-22 06:59:18 51°18.44 2°50.06 9.4 297 17.6 100740 74
2003-09-22 06:59:24 51°18.46 2°50.03 8.9 297 17.6 100730 74
2003-09-22 06:59:28 51°18.47 2°50.01 9.1 297 17.6 100730 74
2003-09-22 06:59:34 51°18.48 2°49.98 8 303 17.6 100730 74
2003-09-22 06:59:38 51°18.49 2°49.96 8.2 298 17.6 100730 74
2003-09-22 06:59:44 51°18.51 2°49.93 8.5 305 17.6 100730 74
2003-09-22 06:59:48 51°18.52 2°49.92 8.7 300 17.6 100730 74
2003-09-22 06:59:54 51°18.53 2°49.89 8.6 302 17.6 100730 74
2003-09-22 06:59:58 51°18.54 2°49.87 9.2 306 17.6 100730 73
2003-09-22 07:00:04 51°18.55 2°49.84 9.1 307 17.6 100730 74
2003-09-22 07:00:08 51°18.56 2°49.82 9.1 304 17.6 100730 74
2003-09-22 07:00:14 51°18.57 2°49.79 11.4 303 17.6 100730 74
2003-09-22 07:00:18 51°18.58 2°49.78 11.3 301 17.6 100730 74
2003-09-22 07:00:24 51°18.59 2°49.75 9.5 307 17.6 100730 74
2003-09-22 07:00:28 51°18.6 2°49.73 10.1 301 17.6 100730 74
2003-09-22 07:00:34 51°18.61 2°49.7 11.5 299 17.6 100730 74
2003-09-22 07:00:38 51°18.62 2°49.68 10.6 298 17.6 100720 74
2003-09-22 07:00:44 51°18.63 2°49.65 10.9 298 17.6 100720 74
2003-09-22 07:00:50 51°18.65 2°49.63 10.7 296 17.6 100720 73
2003-09-22 07:00:54 51°18.65 2°49.61 10.8 298 17.6 100720 73
2003-09-22 07:00:58 51°18.66 2°49.59 11 298 17.6 100730 73
2003-09-22 07:01:04 51°18.68 2°49.56 9.8 307 17.6 100730 73
2003-09-22 07:01:08 51°18.68 2°49.54 10.4 305 17.6 100730 73
2003-09-22 07:01:14 51°18.7 2°49.51 11.6 297 17.6 100730 73
2003-09-22 07:01:18 51°18.7 2°49.5 10.7 298 17.6 100730 73
2003-09-22 07:01:24 51°18.72 2°49.47 10.3 304 17.6 100730 73
2003-09-22 07:01:28 51°18.73 2°49.45 10.5 300 17.7 100740 74
2003-09-22 07:01:34 51°18.74 2°49.42 10.6 302 17.7 100740 74
2003-09-22 07:01:38 51°18.75 2°49.4 11 301 17.7 100730 73
2003-09-22 07:01:44 51°18.76 2°49.38 11.3 298 17.7 100730 73
2003-09-22 07:01:48 51°18.77 2°49.36 10.9 299 17.7 100730 73
2003-09-22 07:01:54 51°18.78 2°49.33 11.6 298 17.7 100730 73
2003-09-22 07:01:58 51°18.79 2°49.31 10.4 298 17.7 100740 73
2003-09-22 07:02:04 51°18.8 2°49.28 11.2 296 17.7 100740 73
2003-09-22 07:02:08 51°18.81 2°49.27 10.5 299 17.7 100740 73
2003-09-22 07:02:14 51°18.82 2°49.24 10.6 296 17.7 100740 73
2003-09-22 07:02:18 51°18.83 2°49.22 10.9 303 17.7 100740 73
2003-09-22 07:02:24 51°18.84 2°49.19 11.2 300 17.7 100740 73
2003-09-22 07:02:28 51°18.85 2°49.17 11 304 17.7 100740 72
2003-09-22 07:02:34 51°18.87 2°49.14 12.2 295 17.7 100740 72
2003-09-22 07:02:38 51°18.87 2°49.13 11.9 295 17.7 100740 72
2003-09-22 07:02:44 51°18.89 2°49.1 11.3 295 17.7 100740 72
2003-09-22 07:02:48 51°18.89 2°49.08 10 298 17.7 100740 73
2003-09-22 07:02:54 51°18.91 2°49.05 9.9 299 17.7 100740 73
2003-09-22 07:02:58 51°18.92 2°49.03 9.8 303 17.7 100740 73
2003-09-22 07:03:04 51°18.93 2°49 10 302 17.7 100740 73
2003-09-22 07:03:08 51°18.94 2°48.99 10.6 301 17.7 100740 72
2003-09-22 07:03:14 51°18.95 2°48.96 10 296 17.7 100740 72
2003-09-22 07:03:18 51°18.96 2°48.94 11.7 293 17.7 100740 73
2003-09-22 07:03:24 51°18.97 2°48.91 10.2 300 17.8 100740 73
2003-09-22 07:03:28 51°18.98 2°48.89 11.1 296 17.8 100740 73
2003-09-22 07:03:34 51°18.99 2°48.86 11 296 17.8 100740 73
2003-09-22 07:03:38 51°19 2°48.85 11.2 300 17.8 100740 73
2003-09-22 07:03:44 51°19.01 2°48.82 10.2 299 17.8 100740 73
2003-09-22 07:03:48 51°19.02 2°48.8 11.1 304 17.8 100740 73
2003-09-22 07:03:54 51°19.03 2°48.77 10.6 297 17.8 100740 73
2003-09-22 07:03:58 51°19.04 2°48.75 10.9 299 17.8 100740 73
2003-09-22 07:04:04 51°19.05 2°48.72 10.4 303 17.8 100740 73
2003-09-22 07:04:08 51°19.06 2°48.71 10.8 302 17.8 100740 73
2003-09-22 07:04:14 51°19.08 2°48.68 10.6 306 17.8 100740 73
2003-09-22 07:04:18 51°19.08 2°48.66 11.8 303 17.8 100740 73
2003-09-22 07:04:24 51°19.1 2°48.63 10.5 306 17.8 100740 73
2003-09-22 07:04:28 51°19.1 2°48.61 10.6 302 17.8 100750 74
2003-09-22 07:04:34 51°19.12 2°48.58 10.5 305 17.8 100750 74
2003-09-22 07:04:38 51°19.13 2°48.56 10.8 307 17.8 100740 74
2003-09-22 07:04:44 51°19.14 2°48.54 10.1 310 17.8 100740 74
2003-09-22 07:04:48 51°19.15 2°48.52 11.5 300 17.8 100740 74
2003-09-22 07:04:54 51°19.16 2°48.49 10.6 300 17.8 100740 74
2003-09-22 07:04:58 51°19.17 2°48.47 11.1 305 17.8 100740 74
2003-09-22 07:05:04 51°19.18 2°48.44 10.4 306 17.8 100740 74
2003-09-22 07:05:08 51°19.19 2°48.43 11 300 17.8 100740 74
2003-09-22 07:05:14 51°19.2 2°48.4 11.5 301 17.8 100740 74
2003-09-22 07:05:18 51°19.21 2°48.38 11.8 297 17.8 100740 74
2003-09-22 07:05:24 51°19.22 2°48.35 11 296 17.8 100740 74
2003-09-22 07:05:28 51°19.23 2°48.33 9.5 307 17.8 100730 74
2003-09-22 07:05:34 51°19.25 2°48.3 11.6 306 17.8 100730 74
2003-09-22 07:05:38 51°19.25 2°48.28 10.5 304 17.8 100730 74
2003-09-22 07:05:44 51°19.27 2°48.26 11.5 304 17.8 100730 74
2003-09-22 07:05:50 51°19.28 2°48.23 10.7 302 17.8 100730 73
2003-09-22 07:05:54 51°19.29 2°48.21 10.8 304 17.8 100730 74
2003-09-22 07:05:58 51°19.29 2°48.19 10 302 17.8 100730 74
2003-09-22 07:06:04 51°19.31 2°48.16 10.2 307 17.8 100730 74
2003-09-22 07:06:08 51°19.32 2°48.14 10.9 306 17.8 100730 73
2003-09-22 07:06:14 51°19.33 2°48.11 10.4 305 17.8 100730 73
2003-09-22 07:06:18 51°19.34 2°48.09 11.5 301 17.8 100730 73
2003-09-22 07:06:24 51°19.35 2°48.06 11.8 301 17.8 100730 73
2003-09-22 07:06:28 51°19.36 2°48.04 10.2 301 17.8 100730 74
2003-09-22 07:06:34 51°19.37 2°48.01 11.5 306 17.8 100730 74
2003-09-22 07:06:38 51°19.38 2°48 10.8 301 17.8 100740 74
2003-09-22 07:06:44 51°19.39 2°47.97 10.4 302 17.8 100740 74
2003-09-22 07:06:48 51°19.4 2°47.95 10.6 305 17.8 100720 74
2003-09-22 07:06:54 51°19.41 2°47.92 11.2 302 17.8 100720 74
2003-09-22 07:06:58 51°19.42 2°47.9 10.6 304 17.8 100730 74
2003-09-22 07:07:04 51°19.43 2°47.87 11.5 303 17.8 100730 74
2003-09-22 07:07:08 51°19.44 2°47.85 11.4 299 17.8 100730 74
2003-09-22 07:07:14 51°19.45 2°47.82 10.4 303 17.8 100730 74
2003-09-22 07:07:18 51°19.46 2°47.8 10.2 305 17.8 100730 74
2003-09-22 07:07:24 51°19.47 2°47.77 10.1 309 17.8 100730 74
2003-09-22 07:07:28 51°19.48 2°47.75 10.6 306 17.8 100730 74
2003-09-22 07:07:34 51°19.49 2°47.72 10.1 308 17.8 100730 74
2003-09-22 07:07:38 51°19.5 2°47.7 10.4 307 17.8 100720 74
2003-09-22 07:07:44 51°19.51 2°47.68 11.4 304 17.8 100720 74
2003-09-22 07:07:48 51°19.52 2°47.66 10.9 303 17.8 100730 75
2003-09-22 07:07:54 51°19.53 2°47.63 10.5 301 17.8 100730 75
2003-09-22 07:07:58 51°19.54 2°47.61 10.1 311 17.8 100730 75
2003-09-22 07:08:04 51°19.56 2°47.58 10.7 304 17.8 100730 75
2003-09-22 07:08:08 51°19.56 2°47.56 10.5 304 17.8 100720 75
2003-09-22 07:08:14 51°19.58 2°47.53 10.6 307 17.8 100720 75
2003-09-22 07:08:18 51°19.58 2°47.51 11 304 17.8 100720 75
2003-09-22 07:08:24 51°19.6 2°47.48 11.9 310 17.8 100720 75
2003-09-22 07:08:28 51°19.6 2°47.46 11.9 304 17.8 100730 75
2003-09-22 07:08:34 51°19.62 2°47.43 10.9 308 17.8 100730 75
2003-09-22 07:08:38 51°19.63 2°47.42 11.1 306 17.8 100720 75
2003-09-22 07:08:44 51°19.64 2°47.39 11 307 17.8 100720 75
2003-09-22 07:08:48 51°19.65 2°47.37 12.1 305 17.8 100720 75
2003-09-22 07:08:54 51°19.66 2°47.34 11.9 303 17.8 100720 75
2003-09-22 07:08:58 51°19.67 2°47.32 11.1 308 17.8 100730 74
2003-09-22 07:09:04 51°19.68 2°47.29 11.1 307 17.8 100730 74
2003-09-22 07:09:10 51°19.69 2°47.26 11.5 304 17.8 100720 75
2003-09-22 07:09:14 51°19.7 2°47.24 11.2 305 17.8 100720 75
2003-09-22 07:09:18 51°19.71 2°47.22 11.4 303 17.8 100720 75
2003-09-22 07:09:24 51°19.72 2°47.19 12.6 305 17.8 100720 75
2003-09-22 07:09:28 51°19.73 2°47.17 10.7 302 17.9 100730 75
2003-09-22 07:09:34 51°19.74 2°47.15 11.4 308 17.9 100730 75
2003-09-22 07:09:38 51°19.75 2°47.13 10.7 306 17.8 100720 74
2003-09-22 07:09:44 51°19.76 2°47.1 10.9 305 17.8 100720 74
2003-09-22 07:09:48 51°19.77 2°47.08 11.5 306 17.9 100720 74
2003-09-22 07:09:54 51°19.79 2°47.05 10.4 307 17.9 100720 74
2003-09-22 07:09:58 51°19.8 2°47.03 11.6 306 17.9 100730 75
2003-09-22 07:10:04 51°19.81 2°47 12.1 305 17.9 100730 75
2003-09-22 07:10:08 51°19.82 2°46.98 11.2 305 17.9 100730 75
2003-09-22 07:10:14 51°19.83 2°46.95 11.4 303 17.9 100730 75
2003-09-22 07:10:18 51°19.84 2°46.94 12.7 310 17.9 100730 75
2003-09-22 07:10:24 51°19.85 2°46.91 12.7 306 17.9 100730 75
2003-09-22 07:10:28 51°19.86 2°46.89 12.6 303 17.9 100730 75
2003-09-22 07:10:34 51°19.87 2°46.86 11.1 306 17.9 100730 75
2003-09-22 07:10:38 51°19.88 2°46.84 10.8 305 17.9 100730 75
2003-09-22 07:10:44 51°19.89 2°46.81 11.6 307 17.9 100730 75
2003-09-22 07:10:48 51°19.9 2°46.79 11.2 307 17.9 100740 75
2003-09-22 07:10:54 51°19.91 2°46.76 11 312 17.9 100740 75
2003-09-22 07:10:58 51°19.92 2°46.74 11.9 305 17.9 100730 75
2003-09-22 07:11:04 51°19.93 2°46.72 12 306 17.9 100730 75
2003-09-22 07:11:08 51°19.94 2°46.7 10.8 314 17.9 100730 76
2003-09-22 07:11:14 51°19.96 2°46.67 12 306 17.9 100730 76
2003-09-22 07:11:18 51°19.96 2°46.65 11 315 18 100730 76
2003-09-22 07:11:24 51°19.98 2°46.62 11.9 308 18 100730 76
2003-09-22 07:11:28 51°19.98 2°46.6 11.9 307 18 100720 76
2003-09-22 07:11:34 51°20 2°46.57 12.1 312 18 100720 76
2003-09-22 07:11:38 51°20 2°46.55 11.8 310 18 100720 76
2003-09-22 07:11:44 51°20.01 2°46.52 11.4 318 18 100720 76
2003-09-22 07:11:48 51°20.02 2°46.5 11.9 227 18 100730 76
2003-09-22 07:11:54 51°20.03 2°46.47 12.1 315 18 100730 76
2003-09-22 07:11:58 51°20.04 2°46.45 11.7 313 18 100720 76
2003-09-22 07:12:04 51°20.05 2°46.42 12.4 313 18 100720 76
2003-09-22 07:12:08 51°20.06 2°46.4 11.7 315 18 100720 76
2003-09-22 07:12:14 51°20.07 2°46.37 11.6 42 18 100720 76
2003-09-22 07:12:18 51°20.07 2°46.35 11.3 318 18 100720 76
2003-09-22 07:12:24 51°20.08 2°46.32 13.1 314 18 100720 76
2003-09-22 07:12:28 51°20.09 2°46.3 10.6 315 18 100710 75
2003-09-22 07:12:34 51°20.1 2°46.27 11.9 319 18 100710 75
2003-09-22 07:12:38 51°20.1 2°46.25 13.3 230 18 100720 75
2003-09-22 07:12:44 51°20.11 2°46.22 12.9 311 18 100720 75
2003-09-22 07:12:48 51°20.11 2°46.2 12.7 230 18 100720 76
2003-09-22 07:12:54 51°20.12 2°46.16 13.4 317 18 100720 76
2003-09-22 07:12:58 51°20.13 2°46.14 12.5 314 18.1 100720 76
2003-09-22 07:13:04 51°20.14 2°46.11 11.7 316 18.1 100720 76
2003-09-22 07:13:08 51°20.14 2°46.09 11.9 228 18.1 100720 76
2003-09-22 07:13:14 51°20.15 2°46.06 14 321 18.1 100720 76
2003-09-22 07:13:18 51°20.16 2°46.04 14.1 319 18.1 100720 76
2003-09-22 07:13:24 51°20.16 2°46.01 13.1 316 18.1 100710 76
2003-09-22 07:13:28 51°20.17 2°45.98 12.9 317 18.1 100710 76
2003-09-22 07:13:34 51°20.17 2°45.95 14 317 18.1 100710 76
2003-09-22 07:13:38 51°20.18 2°45.93 13.4 319 18.1 100710 76
2003-09-22 07:13:44 51°20.18 2°45.9 12.5 317 18.1 100710 76
2003-09-22 07:13:48 51°20.19 2°45.88 13.5 320 18.1 100710 76
2003-09-22 07:13:54 51°20.19 2°45.84 13.9 318 18.1 100700 75
2003-09-22 07:13:58 51°20.2 2°45.82 12.4 315 18.1 100700 75
2003-09-22 07:14:04 51°20.2 2°45.79 12.9 324 18.1 100700 75
2003-09-22 07:14:08 51°20.21 2°45.77 12.8 319 18.1 100710 76
2003-09-22 07:14:14 51°20.21 2°45.74 13.2 319 18.1 100710 76
2003-09-22 07:14:18 51°20.22 2°45.71 12.7 320 18.1 100710 76
2003-09-22 07:14:24 51°20.22 2°45.68 13.4 320 18.1 100710 76
2003-09-22 07:14:28 51°20.23 2°45.66 14.2 317 18.2 100700 76
2003-09-22 07:14:34 51°20.23 2°45.63 14.1 318 18.2 100700 76
2003-09-22 07:14:38 51°20.24 2°45.6 14.1 41 18.2 100710 76
2003-09-22 07:14:44 51°20.25 2°45.57 12.8 324 18.2 100710 76
2003-09-22 07:14:48 51°20.25 2°45.55 12.8 324 18.2 100700 76
2003-09-22 07:14:54 51°20.26 2°45.52 13.7 317 18.2 100700 76
2003-09-22 07:14:58 51°20.26 2°45.49 14.2 321 18.2 100710 76
2003-09-22 07:15:04 51°20.26 2°45.46 14.3 321 18.2 100700 76
2003-09-22 07:15:08 51°20.27 2°45.44 14.8 322 18.2 100700 76
2003-09-22 07:15:14 51°20.27 2°45.4 14.4 323 18.2 100700 76
2003-09-22 07:15:18 51°20.28 2°45.38 14.2 325 18.2 100710 76
2003-09-22 07:15:24 51°20.28 2°45.35 14.5 326 18.2 100700 76
2003-09-22 07:15:28 51°20.28 2°45.33 14.6 320 18.2 100700 76
2003-09-22 07:15:34 51°20.29 2°45.29 15.1 323 18.2 100700 75
2003-09-22 07:15:38 51°20.29 2°45.27 14.8 320 18.2 100700 75
2003-09-22 07:15:44 51°20.29 2°45.24 14.7 320 18.2 100700 75
2003-09-22 07:15:48 51°20.3 2°45.21 14.7 318 18.2 100700 75
2003-09-22 07:15:54 51°20.3 2°45.18 13.4 324 18.2 100700 75
2003-09-22 07:15:58 51°20.3 2°45.16 14.9 327 18.2 100700 75
2003-09-22 07:16:04 51°20.31 2°45.12 14.8 326 18.2 100700 75
2003-09-22 07:16:08 51°20.31 2°45.1 14.7 323 18.2 100690 75
2003-09-22 07:16:14 51°20.31 2°45.06 15.7 330 18.2 100690 75
2003-09-22 07:16:18 51°20.31 2°45.04 15.2 323 18.2 100700 76
2003-09-22 07:16:24 51°20.32 2°45.01 15.4 324 18.2 100700 76
2003-09-22 07:16:28 51°20.32 2°44.98 15.5 327 18.3 100710 76
2003-09-22 07:16:34 51°20.32 2°44.95 15.4 326 18.3 100710 76
2003-09-22 07:16:38 51°20.33 2°44.92 14.7 323 18.3 100710 76
2003-09-22 07:16:44 51°20.33 2°44.89 15.4 326 18.3 100710 76
2003-09-22 07:16:48 51°20.33 2°44.87 14.6 325 18.3 100700 76
2003-09-22 07:16:54 51°20.34 2°44.83 14 330 18.3 100700 76
2003-09-22 07:16:58 51°20.34 2°44.81 15.6 326 18.3 100700 76
2003-09-22 07:17:04 51°20.34 2°44.77 14.8 323 18.3 100700 76
2003-09-22 07:17:08 51°20.35 2°44.75 15.9 319 18.3 100700 76
2003-09-22 07:17:14 51°20.35 2°44.71 14.5 326 18.3 100700 76
2003-09-22 07:17:18 51°20.35 2°44.69 15 322 18.3 100700 76
2003-09-22 07:17:24 51°20.36 2°44.65 13.9 330 18.3 100700 76
2003-09-22 07:17:28 51°20.36 2°44.63 14 323 18.3 100700 76
2003-09-22 07:17:34 51°20.36 2°44.59 15 325 18.3 100700 76
2003-09-22 07:17:38 51°20.37 2°44.57 15.5 323 18.3 100700 76
2003-09-22 07:17:44 51°20.37 2°44.54 15.3 323 18.3 100700 76
2003-09-22 07:17:48 51°20.37 2°44.51 14.9 327 18.3 100710 76
2003-09-22 07:17:54 51°20.38 2°44.48 15 323 18.3 100710 76
2003-09-22 07:17:58 51°20.38 2°44.45 15.5 325 18.3 100710 76
2003-09-22 07:18:04 51°20.38 2°44.42 14.1 329 18.3 100700 76
2003-09-22 07:18:08 51°20.38 2°44.39 16.1 330 18.3 100700 76
2003-09-22 07:18:14 51°20.39 2°44.36 15.6 327 18.3 100700 76
2003-09-22 07:18:18 51°20.39 2°44.33 14.6 326 18.3 100720 76
2003-09-22 07:18:24 51°20.39 2°44.3 14.2 326 18.3 100720 76
2003-09-22 07:18:28 51°20.39 2°44.27 13.9 332 18.3 100710 76
2003-09-22 07:18:34 51°20.4 2°44.24 15.3 330 18.3 100710 76
2003-09-22 07:18:38 51°20.4 2°44.21 15 335 18.3 100710 76
2003-09-22 07:18:44 51°20.4 2°44.18 14.9 334 18.3 100710 76
2003-09-22 07:18:48 51°20.4 2°44.16 15.3 328 18.4 100710 77
2003-09-22 07:18:54 51°20.41 2°44.12 15.4 328 18.4 100700 77
2003-09-22 07:18:58 51°20.41 2°44.1 16.6 327 18.4 100700 77
2003-09-22 07:19:04 51°20.41 2°44.06 15.7 328 18.4 100700 77
2003-09-22 07:19:10 51°20.42 2°44.03 14.8 325 18.4 100710 77
2003-09-22 07:19:14 51°20.42 2°44 14.8 330 18.4 100710 77
2003-09-22 07:19:18 51°20.42 2°43.98 15.3 326 18.4 100710 77
2003-09-22 07:19:24 51°20.42 2°43.94 14.9 330 18.4 100710 77
2003-09-22 07:19:28 51°20.42 2°43.92 13.4 329 18.4 100700 77
2003-09-22 07:19:34 51°20.43 2°43.88 14.2 327 18.4 100700 77
2003-09-22 07:19:38 51°20.43 2°43.86 14.8 332 18.4 100700 77
2003-09-22 07:19:44 51°20.43 2°43.82 14.2 324 18.4 100700 77
2003-09-22 07:19:48 51°20.44 2°43.8 16.6 326 18.4 100700 77
2003-09-22 07:19:54 51°20.44 2°43.76 15.4 327 18.4 100700 77
2003-09-22 07:19:58 51°20.44 2°43.74 15.6 327 18.4 100710 77
2003-09-22 07:20:04 51°20.44 2°43.7 14.3 331 18.4 100710 77
2003-09-22 07:20:08 51°20.45 2°43.68 13.6 329 18.4 100710 77
2003-09-22 07:20:14 51°20.45 2°43.64 14.5 328 18.4 100710 77
2003-09-22 07:20:18 51°20.45 2°43.62 14.5 329 18.4 100700 77
2003-09-22 07:20:24 51°20.45 2°43.58 15.4 328 18.4 100700 77
2003-09-22 07:20:28 51°20.46 2°43.56 14.7 327 18.4 100700 77
2003-09-22 07:20:34 51°20.46 2°43.53 15.5 328 18.4 100700 77
2003-09-22 07:20:38 51°20.46 2°43.5 15.2 328 18.4 100700 77
2003-09-22 07:20:44 51°20.47 2°43.47 14.6 327 18.4 100700 77
2003-09-22 07:20:48 51°20.47 2°43.44 14.8 329 18.4 100700 77
2003-09-22 07:20:54 51°20.47 2°43.41 14.7 332 18.4 100700 77
2003-09-22 07:20:58 51°20.47 2°43.38 15.5 328 18.4 100700 77
2003-09-22 07:21:04 51°20.48 2°43.35 14.7 328 18.4 100700 77
2003-09-22 07:21:08 51°20.48 2°43.32 15.1 331 18.4 100700 77
2003-09-22 07:21:14 51°20.48 2°43.29 14.7 331 18.4 100700 77
2003-09-22 07:21:18 51°20.48 2°43.26 14 330 18.4 100700 77
2003-09-22 07:21:24 51°20.49 2°43.23 14.2 330 18.4 100700 77
2003-09-22 07:21:28 51°20.49 2°43.2 15.1 333 18.4 100700 77
2003-09-22 07:21:34 51°20.49 2°43.17 14.6 328 18.4 100700 77
2003-09-22 07:21:38 51°20.49 2°43.15 15.5 329 18.4 100700 77
2003-09-22 07:21:44 51°20.5 2°43.11 15.9 329 18.4 100700 77
2003-09-22 07:21:48 51°20.5 2°43.09 14.4 328 18.4 100710 77
2003-09-22 07:21:54 51°20.5 2°43.05 14 332 18.4 100710 77
2003-09-22 07:21:58 51°20.5 2°43.03 13.7 330 18.4 100710 77
2003-09-22 07:22:04 51°20.51 2°42.99 14.5 335 18.4 100700 77
2003-09-22 07:22:08 51°20.51 2°42.97 14 329 18.4 100700 77
2003-09-22 07:22:14 51°20.51 2°42.94 14.6 326 18.4 100700 77
2003-09-22 07:22:18 51°20.51 2°42.91 15 327 18.4 100690 77
2003-09-22 07:22:24 51°20.52 2°42.88 13.9 332 18.4 100710 77
2003-09-22 07:22:28 51°20.52 2°42.85 14.3 330 18.4 100710 77
2003-09-22 07:22:34 51°20.52 2°42.82 14.4 331 18.4 100700 77
2003-09-22 07:22:38 51°20.52 2°42.8 14.3 330 18.4 100700 77
2003-09-22 07:22:44 51°20.53 2°42.76 14.3 328 18.4 100700 77
2003-09-22 07:22:48 51°20.53 2°42.74 14.3 335 18.4 100700 78
2003-09-22 07:22:54 51°20.53 2°42.7 13.9 334 18.4 100700 78
2003-09-22 07:22:58 51°20.53 2°42.68 15.3 334 18.4 100700 77
2003-09-22 07:23:04 51°20.54 2°42.64 15.3 334 18.4 100710 77
2003-09-22 07:23:08 51°20.54 2°42.62 15.4 333 18.4 100710 77
2003-09-22 07:23:14 51°20.54 2°42.59 14.6 332 18.4 100710 77
2003-09-22 07:23:18 51°20.55 2°42.56 15.7 329 18.4 100710 77
2003-09-22 07:23:24 51°20.55 2°42.53 14.8 331 18.4 100710 77
2003-09-22 07:23:28 51°20.55 2°42.51 13.2 333 18.4 100700 77
2003-09-22 07:23:34 51°20.55 2°42.47 14.4 327 18.4 100700 77
2003-09-22 07:23:38 51°20.56 2°42.45 13.9 333 18.4 100700 77
2003-09-22 07:23:44 51°20.56 2°42.41 15.6 330 18.4 100700 77
2003-09-22 07:23:48 51°20.56 2°42.39 14.6 332 18.4 100710 77
2003-09-22 07:23:54 51°20.57 2°42.35 13.9 334 18.4 100700 78
2003-09-22 07:23:58 51°20.57 2°42.33 13 331 18.4 100700 78
2003-09-22 07:24:04 51°20.57 2°42.3 12.8 333 18.4 100710 78
2003-09-22 07:24:10 51°20.57 2°42.26 13.2 330 18.4 100710 78
2003-09-22 07:24:14 51°20.58 2°42.24 14.3 332 18.4 100700 78
2003-09-22 07:24:18 51°20.58 2°42.22 14 333 18.4 100700 78
2003-09-22 07:24:24 51°20.58 2°42.18 14.7 331 18.4 100700 78
2003-09-22 07:24:28 51°20.58 2°42.16 13.5 328 18.4 100710 78
2003-09-22 07:24:34 51°20.59 2°42.12 13.9 330 18.4 100710 78
2003-09-22 07:24:38 51°20.59 2°42.1 14.4 331 18.4 100710 78
2003-09-22 07:24:44 51°20.59 2°42.07 13.9 334 18.4 100710 78
2003-09-22 07:24:48 51°20.6 2°42.04 14.5 332 18.4 100710 78
2003-09-22 07:24:54 51°20.6 2°42.01 14.2 329 18.4 100710 78
2003-09-22 07:24:58 51°20.6 2°41.99 13.3 330 18.4 100710 78
2003-09-22 07:25:04 51°20.6 2°41.95 13.5 328 18.4 100710 78
2003-09-22 07:25:10 51°20.61 2°41.92 13.9 329 18.4 100710 78
2003-09-22 07:25:14 51°20.61 2°41.89 12.8 333 18.4 100710 78
2003-09-22 07:25:18 51°20.61 2°41.87 13 334 18.4 100700 78
2003-09-22 07:25:24 51°20.62 2°41.84 13.6 330 18.4 100700 78
2003-09-22 07:25:28 51°20.62 2°41.81 14.2 334 18.4 100700 78
2003-09-22 07:25:34 51°20.62 2°41.78 14.4 331 18.4 100700 78
2003-09-22 07:25:38 51°20.62 2°41.75 13.8 333 18.5 100710 79
2003-09-22 07:25:44 51°20.63 2°41.72 13.2 341 18.5 100710 79
2003-09-22 07:25:48 51°20.63 2°41.7 15 336 18.4 100710 79
2003-09-22 07:25:54 51°20.63 2°41.66 14.7 338 18.4 100710 79
2003-09-22 07:25:58 51°20.63 2°41.64 14.6 331 18.5 100710 79
2003-09-22 07:26:04 51°20.64 2°41.61 16.1 332 18.5 100710 79
2003-09-22 07:26:08 51°20.64 2°41.58 16.2 331 18.5 100710 79
2003-09-22 07:26:14 51°20.64 2°41.55 15.2 333 18.5 100710 79
2003-09-22 07:26:18 51°20.65 2°41.53 15.4 332 18.5 100710 79
2003-09-22 07:26:24 51°20.65 2°41.49 14.5 335 18.5 100700 79
2003-09-22 07:26:28 51°20.65 2°41.47 15.6 335 18.5 100700 79
2003-09-22 07:26:34 51°20.66 2°41.43 15.7 331 18.5 100690 79
2003-09-22 07:26:38 51°20.66 2°41.41 14.9 331 18.5 100690 79
2003-09-22 07:26:44 51°20.66 2°41.38 15.7 330 18.5 100700 79
2003-09-22 07:26:48 51°20.66 2°41.35 15.2 334 18.5 100700 79
2003-09-22 07:26:54 51°20.67 2°41.32 14.8 338 18.5 100700 79
2003-09-22 07:26:58 51°20.67 2°41.3 15.5 330 18.5 100710 79
2003-09-22 07:27:04 51°20.67 2°41.26 14.9 334 18.5 100710 79
2003-09-22 07:27:08 51°20.67 2°41.24 15.4 335 18.5 100700 79
2003-09-22 07:27:14 51°20.68 2°41.2 15.9 333 18.5 100700 79
2003-09-22 07:27:18 51°20.68 2°41.18 14.8 337 18.5 100700 79
2003-09-22 07:27:24 51°20.68 2°41.15 15.6 333 18.5 100700 79
2003-09-22 07:27:28 51°20.69 2°41.12 17 331 18.5 100690 78
2003-09-22 07:27:34 51°20.69 2°41.09 16.2 334 18.5 100690 78
2003-09-22 07:27:38 51°20.69 2°41.07 16.7 333 18.5 100700 78
2003-09-22 07:27:44 51°20.69 2°41.03 16.4 334 18.5 100700 78
2003-09-22 07:27:48 51°20.7 2°41.01 16.1 330 18.5 100700 78
2003-09-22 07:27:54 51°20.7 2°40.98 15.6 330 18.5 100700 78
2003-09-22 07:27:58 51°20.7 2°40.95 15.6 333 18.5 100700 78
2003-09-22 07:28:04 51°20.71 2°40.92 14.2 330 18.5 100700 78
2003-09-22 07:28:08 51°20.71 2°40.89 14.5 327 18.5 100690 78
2003-09-22 07:28:14 51°20.71 2°40.86 14 332 18.5 100690 78
2003-09-22 07:28:18 51°20.71 2°40.84 14.5 330 18.5 100690 78
2003-09-22 07:28:24 51°20.72 2°40.8 14.2 333 18.5 100670 78
2003-09-22 07:28:30 51°20.72 2°40.77 12.9 337 18.5 100670 78
2003-09-22 07:28:34 51°20.72 2°40.75 15.1 334 18.5 100670 78
2003-09-22 07:28:38 51°20.72 2°40.72 15.4 332 18.5 100690 79
2003-09-22 07:28:44 51°20.73 2°40.69 15.3 335 18.5 100690 79
2003-09-22 07:28:48 51°20.73 2°40.66 15.3 335 18.5 100700 79
2003-09-22 07:28:54 51°20.73 2°40.63 15 331 18.5 100700 79
2003-09-22 07:28:58 51°20.73 2°40.61 15.3 333 18.5 100700 79
2003-09-22 07:29:04 51°20.74 2°40.57 15.2 333 18.5 100710 79
2003-09-22 07:29:08 51°20.74 2°40.55 16.7 330 18.5 100710 79
2003-09-22 07:29:14 51°20.74 2°40.51 14.3 335 18.5 100710 79
2003-09-22 07:29:18 51°20.74 2°40.49 15.4 332 18.5 100700 78
2003-09-22 07:29:24 51°20.75 2°40.46 16.5 334 18.5 100700 78
2003-09-22 07:29:28 51°20.75 2°40.43 15.8 329 18.5 100700 78
2003-09-22 07:29:34 51°20.75 2°40.4 14.9 324 18.5 100690 78
2003-09-22 07:29:38 51°20.75 2°40.37 16.1 333 18.5 100690 78
2003-09-22 07:29:44 51°20.76 2°40.34 16 333 18.5 100690 78
2003-09-22 07:29:48 51°20.76 2°40.32 15.2 332 18.5 100690 79
2003-09-22 07:29:54 51°20.76 2°40.28 15.8 333 18.5 100690 79
2003-09-22 07:29:58 51°20.76 2°40.26 14.4 331 18.5 100690 79
2003-09-22 07:30:02 51°20.77 2°40.24 15.3 333 18.5 100680 78
2003-09-22 07:30:08 51°20.77 2°40.2 14.9 336 18.5 100680 78
2003-09-22 07:30:14 51°20.77 2°40.17 15.1 331 18.5 100680 79
2003-09-22 07:30:18 51°20.77 2°40.14 15.6 337 18.5 100680 79
2003-09-22 07:30:24 51°20.78 2°40.11 16.2 337 18.5 100680 79
2003-09-22 07:30:28 51°20.78 2°40.09 16.2 336 18.5 100690 79
2003-09-22 07:30:34 51°20.78 2°40.05 16.5 335 18.5 100690 79
2003-09-22 07:30:38 51°20.78 2°40.03 16.5 339 18.5 100690 79
2003-09-22 07:30:42 51°20.78 2°40 17.1 336 18.6 100700 79
2003-09-22 07:30:48 51°20.79 2°39.97 15.5 337 18.6 100700 79
2003-09-22 07:30:54 51°20.79 2°39.93 15.7 336 18.6 100700 79
2003-09-22 07:30:58 51°20.79 2°39.91 15.7 336 18.5 100700 79
2003-09-22 07:31:04 51°20.79 2°39.88 16.7 334 18.5 100700 79
2003-09-22 07:31:10 51°20.8 2°39.84 15.7 336 18.5 100690 79
2003-09-22 07:31:14 51°20.8 2°39.82 15.2 335 18.5 100690 79
2003-09-22 07:31:18 51°20.8 2°39.8 15.3 338 18.5 100690 79
2003-09-22 07:31:22 51°20.8 2°39.77 15.8 335 18.5 100690 79
2003-09-22 07:31:28 51°20.81 2°39.74 15.7 330 18.5 100690 79
2003-09-22 07:31:34 51°20.81 2°39.7 14.5 333 18.5 100690 79
2003-09-22 07:31:38 51°20.81 2°39.68 14.8 333 18.5 100690 79
2003-09-22 07:31:44 51°20.81 2°39.64 16.1 337 18.5 100690 79
2003-09-22 07:31:48 51°20.81 2°39.62 16.3 334 18.5 100700 79
2003-09-22 07:31:54 51°20.82 2°39.59 16.2 332 18.5 100700 79
2003-09-22 07:31:58 51°20.82 2°39.56 15.2 333 18.5 100690 79
2003-09-22 07:32:02 51°20.82 2°39.54 15.3 333 18.5 100690 79
2003-09-22 07:32:08 51°20.82 2°39.51 15.3 334 18.5 100700 79
2003-09-22 07:32:14 51°20.83 2°39.47 14.8 335 18.5 100700 79
2003-09-22 07:32:18 51°20.83 2°39.45 15.9 335 18.5 100690 79
2003-09-22 07:32:24 51°20.83 2°39.41 17.3 331 18.5 100690 79
2003-09-22 07:32:30 51°20.83 2°39.38 17 336 18.5 100680 79
2003-09-22 07:32:34 51°20.84 2°39.36 16.9 334 18.5 100680 79
2003-09-22 07:32:38 51°20.84 2°39.33 16.6 333 18.5 100700 80
2003-09-22 07:32:42 51°20.84 2°39.31 17.4 333 18.5 100700 80
2003-09-22 07:32:48 51°20.84 2°39.28 15.5 332 18.5 100690 80
2003-09-22 07:32:54 51°20.85 2°39.24 15.9 335 18.5 100680 80
2003-09-22 07:33:00 51°20.85 2°39.21 17.1 333 18.5 100680 80
2003-09-22 07:33:04 51°20.85 2°39.18 16.1 335 18.5 100680 80
2003-09-22 07:33:08 51°20.85 2°39.16 15.6 338 18.5 100690 79
2003-09-22 07:33:14 51°20.85 2°39.13 16.1 340 18.5 100690 79
2003-09-22 07:33:18 51°20.86 2°39.1 16.4 337 18.5 100690 80
2003-09-22 07:33:24 51°20.86 2°39.07 17.9 337 18.5 100690 80
2003-09-22 07:33:28 51°20.86 2°39.05 16.6 337 18.5 100690 80
2003-09-22 07:33:34 51°20.86 2°39.01 17.7 335 18.5 100690 80
2003-09-22 07:33:38 51°20.87 2°38.99 17.7 335 18.5 100690 80
2003-09-22 07:33:44 51°20.87 2°38.96 17.2 337 18.5 100690 80
2003-09-22 07:33:48 51°20.87 2°38.93 17.3 332 18.5 100680 80
2003-09-22 07:33:54 51°20.88 2°38.9 16.6 334 18.5 100680 80
2003-09-22 07:33:58 51°20.88 2°38.88 15.9 338 18.5 100670 79
2003-09-22 07:34:04 51°20.88 2°38.84 16.4 336 18.5 100680 79
2003-09-22 07:34:08 51°20.88 2°38.82 16.5 335 18.5 100680 79
2003-09-22 07:34:14 51°20.88 2°38.78 16.1 335 18.5 100680 79
2003-09-22 07:34:18 51°20.89 2°38.76 17.9 332 18.5 100680 79
2003-09-22 07:34:24 51°20.89 2°38.73 16.8 335 18.5 100680 79
2003-09-22 07:34:28 51°20.89 2°38.7 14.9 336 18.5 100680 79
2003-09-22 07:34:34 51°20.89 2°38.67 15.9 332 18.5 100680 79
2003-09-22 07:34:38 51°20.9 2°38.65 17 333 18.5 100680 80
2003-09-22 07:34:44 51°20.9 2°38.61 15.4 339 18.5 100680 80
2003-09-22 07:34:48 51°20.9 2°38.59 16.5 335 18.5 100680 80
2003-09-22 07:34:54 51°20.9 2°38.56 16 338 18.5 100680 80
2003-09-22 07:34:58 51°20.91 2°38.53 16.8 336 18.5 100690 80
2003-09-22 07:35:04 51°20.91 2°38.5 17.9 335 18.5 100690 80
2003-09-22 07:35:08 51°20.91 2°38.47 17.2 334 18.5 100680 80
2003-09-22 07:35:14 51°20.91 2°38.44 17.5 337 18.5 100680 80
2003-09-22 07:35:18 51°20.91 2°38.42 16.6 333 18.5 100690 80
2003-09-22 07:35:24 51°20.92 2°38.38 16.7 333 18.4 100680 80
2003-09-22 07:35:28 51°20.92 2°38.36 17.4 333 18.4 100680 80
2003-09-22 07:35:34 51°20.92 2°38.33 17.5 332 18.4 100680 80
2003-09-22 07:35:38 51°20.92 2°38.3 16.6 334 18.4 100680 80
2003-09-22 07:35:44 51°20.93 2°38.27 16.8 334 18.4 100670 80
2003-09-22 07:35:50 51°20.93 2°38.24 18.1 334 18.4 100670 80
2003-09-22 07:35:54 51°20.93 2°38.21 16.7 336 18.4 100680 80
2003-09-22 07:35:58 51°20.93 2°38.19 14.5 334 18.4 100680 80
2003-09-22 07:36:04 51°20.94 2°38.16 14.5 343 18.4 100680 80
2003-09-22 07:36:08 51°20.94 2°38.13 16.9 336 18.4 100680 80
2003-09-22 07:36:14 51°20.94 2°38.1 16.5 333 18.4 100680 80
2003-09-22 07:36:18 51°20.94 2°38.08 16.6 337 18.4 100680 80
2003-09-22 07:36:24 51°20.94 2°38.04 16.6 332 18.4 100680 80
2003-09-22 07:36:28 51°20.95 2°38.02 16 342 18.4 100680 80
2003-09-22 07:36:34 51°20.95 2°37.98 16.7 336 18.4 100680 80
2003-09-22 07:36:38 51°20.95 2°37.96 16.1 336 18.4 100690 80
2003-09-22 07:36:44 51°20.95 2°37.93 14.9 340 18.4 100680 80
2003-09-22 07:36:48 51°20.96 2°37.9 15.8 340 18.4 100680 80
2003-09-22 07:36:54 51°20.96 2°37.87 16.4 338 18.4 100680 80
2003-09-22 07:36:58 51°20.96 2°37.85 15.5 337 18.4 100690 80
2003-09-22 07:37:04 51°20.96 2°37.81 15.5 341 18.4 100690 80
2003-09-22 07:37:08 51°20.97 2°37.79 16.4 341 18.4 100690 80
2003-09-22 07:37:14 51°20.97 2°37.76 16.9 339 18.4 100690 80
2003-09-22 07:37:18 51°20.97 2°37.73 15.6 336 18.4 100690 81
2003-09-22 07:37:24 51°20.97 2°37.7 16.6 336 18.4 100690 81
2003-09-22 07:37:28 51°20.97 2°37.68 14.9 338 18.4 100680 81
2003-09-22 07:37:34 51°20.98 2°37.64 15.6 333 18.4 100690 81
2003-09-22 07:37:38 51°20.98 2°37.62 15.9 341 18.4 100690 81
2003-09-22 07:37:44 51°20.98 2°37.58 16.7 335 18.4 100690 81
2003-09-22 07:37:50 51°20.98 2°37.55 15.6 334 18.4 100670 81
2003-09-22 07:37:54 51°20.99 2°37.53 15.1 334 18.4 100690 81
2003-09-22 07:37:58 51°20.99 2°37.5 16.5 337 18.4 100690 81
2003-09-22 07:38:04 51°20.99 2°37.47 16.2 333 18.4 100690 81
2003-09-22 07:38:10 51°20.99 2°37.44 15.8 338 18.4 100680 81
2003-09-22 07:38:14 51°21 2°37.41 16.2 335 18.4 100680 81
2003-09-22 07:38:18 51°21 2°37.39 14.9 335 18.4 100680 81
2003-09-22 07:38:24 51°21 2°37.36 16 333 18.4 100680 81
2003-09-22 07:38:28 51°21 2°37.33 15.8 332 18.4 100680 81
2003-09-22 07:38:34 51°21.01 2°37.3 15.2 336 18.4 100680 81
2003-09-22 07:38:38 51°21.01 2°37.28 15.2 339 18.4 100680 81
2003-09-22 07:38:44 51°21.01 2°37.24 14.4 341 18.4 100680 81
2003-09-22 07:38:48 51°21.01 2°37.22 15.8 333 18.4 100680 81
2003-09-22 07:38:54 51°21.02 2°37.18 15.3 336 18.4 100680 81
2003-09-22 07:38:58 51°21.02 2°37.16 16.2 338 18.4 100680 81
2003-09-22 07:39:04 51°21.02 2°37.13 15.5 339 18.4 100680 81
2003-09-22 07:39:08 51°21.02 2°37.1 16 334 18.4 100690 82
2003-09-22 07:39:14 51°21.03 2°37.07 15.7 337 18.4 100690 82
2003-09-22 07:39:18 51°21.03 2°37.05 16.7 335 18.4 100690 82
2003-09-22 07:39:24 51°21.03 2°37.01 17.1 334 18.4 100680 82
2003-09-22 07:39:28 51°21.03 2°36.99 15.9 335 18.4 100680 82
2003-09-22 07:39:34 51°21.04 2°36.95 15.8 330 18.4 100680 82
2003-09-22 07:39:38 51°21.04 2°36.93 16 336 18.4 100680 82
2003-09-22 07:39:44 51°21.04 2°36.9 16.3 336 18.4 100680 82
2003-09-22 07:39:48 51°21.04 2°36.87 16.1 335 18.4 100680 82
2003-09-22 07:39:54 51°21.05 2°36.84 16 335 18.4 100680 82
2003-09-22 07:39:58 51°21.05 2°36.82 15.8 337 18.4 100680 82
2003-09-22 07:40:04 51°21.05 2°36.78 15.4 333 18.4 100680 82
2003-09-22 07:40:08 51°21.05 2°36.76 15.5 337 18.4 100680 82
2003-09-22 07:40:14 51°21.06 2°36.73 16.7 336 18.4 100690 82
2003-09-22 07:40:18 51°21.06 2°36.7 16.1 335 18.4 100690 82
2003-09-22 07:40:24 51°21.06 2°36.67 16.2 332 18.4 100690 82
2003-09-22 07:40:28 51°21.06 2°36.65 16.2 337 18.4 100680 82
2003-09-22 07:40:34 51°21.07 2°36.61 17.2 335 18.4 100680 82
2003-09-22 07:40:38 51°21.07 2°36.59 15.4 337 18.4 100680 82
2003-09-22 07:40:44 51°21.07 2°36.55 14.8 339 18.4 100680 82
2003-09-22 07:40:48 51°21.08 2°36.53 15.1 338 18.4 100680 82
2003-09-22 07:40:54 51°21.08 2°36.5 15.2 335 18.4 100680 82
2003-09-22 07:40:58 51°21.08 2°36.48 15 336 18.4 100680 82
2003-09-22 07:41:04 51°21.08 2°36.44 14.5 341 18.4 100680 82
2003-09-22 07:41:10 51°21.09 2°36.41 15.2 336 18.4 100680 82
2003-09-22 07:41:14 51°21.09 2°36.38 16.6 337 18.4 100680 83
2003-09-22 07:41:18 51°21.09 2°36.36 14.3 344 18.4 100680 83
2003-09-22 07:41:24 51°21.09 2°36.33 15 341 18.4 100680 83
2003-09-22 07:41:28 51°21.1 2°36.3 14.7 340 18.4 100680 83
2003-09-22 07:41:34 51°21.1 2°36.27 15.5 341 18.4 100680 83
2003-09-22 07:41:38 51°21.1 2°36.25 14.8 344 18.4 100690 83
2003-09-22 07:41:44 51°21.1 2°36.21 16 342 18.4 100690 83
2003-09-22 07:41:48 51°21.11 2°36.19 15.9 339 18.4 100690 83
2003-09-22 07:41:54 51°21.11 2°36.16 16.4 341 18.4 100690 83
2003-09-22 07:41:58 51°21.11 2°36.13 16.4 340 18.5 100690 83
2003-09-22 07:42:04 51°21.11 2°36.1 16 342 18.4 100690 83
2003-09-22 07:42:10 51°21.12 2°36.06 16.1 340 18.4 100690 83
2003-09-22 07:42:14 51°21.12 2°36.04 15.4 338 18.4 100680 83
2003-09-22 07:42:18 51°21.12 2°36.02 15.3 338 18.4 100680 83
2003-09-22 07:42:24 51°21.12 2°35.98 15.3 338 18.4 100680 83
2003-09-22 07:42:28 51°21.13 2°35.96 15.4 337 18.4 100680 83
2003-09-22 07:42:34 51°21.13 2°35.93 15.5 339 18.4 100680 83
2003-09-22 07:42:38 51°21.13 2°35.9 14.5 338 18.4 100680 83
2003-09-22 07:42:44 51°21.14 2°35.87 14.5 337 18.4 100680 83
2003-09-22 07:42:50 51°21.14 2°35.84 14.5 339 18.4 100690 83
2003-09-22 07:42:54 51°21.14 2°35.81 14.7 337 18.4 100690 83
2003-09-22 07:42:58 51°21.14 2°35.79 15.2 342 18.4 100680 83
2003-09-22 07:43:04 51°21.15 2°35.75 15.3 334 18.4 100680 83
2003-09-22 07:43:08 51°21.15 2°35.73 14.5 334 18.4 100690 83
2003-09-22 07:43:14 51°21.15 2°35.7 16 335 18.4 100690 83
2003-09-22 07:43:18 51°21.15 2°35.67 15.2 337 18.4 100690 83
2003-09-22 07:43:24 51°21.16 2°35.64 15.2 334 18.4 100690 83
2003-09-22 07:43:28 51°21.16 2°35.62 14.6 335 18.4 100690 83
2003-09-22 07:43:34 51°21.16 2°35.58 15.4 336 18.4 100680 83
2003-09-22 07:43:38 51°21.16 2°35.56 15.8 337 18.4 100680 83
2003-09-22 07:43:44 51°21.17 2°35.52 15.6 338 18.4 100680 83
2003-09-22 07:43:48 51°21.17 2°35.5 15.1 337 18.4 100680 83
2003-09-22 07:43:54 51°21.17 2°35.47 14 338 18.4 100680 83
2003-09-22 07:43:58 51°21.17 2°35.44 14.5 343 18.4 100680 83
2003-09-22 07:44:04 51°21.18 2°35.41 14.9 346 18.4 100680 84
2003-09-22 07:44:08 51°21.18 2°35.39 15.5 345 18.4 100680 84
2003-09-22 07:44:14 51°21.18 2°35.35 16.6 342 18.4 100680 84
2003-09-22 07:44:18 51°21.18 2°35.33 15.2 344 18.4 100690 84
2003-09-22 07:44:24 51°21.19 2°35.29 15.8 346 18.4 100690 84
2003-09-22 07:44:28 51°21.19 2°35.27 15.3 343 18.4 100700 84
2003-09-22 07:44:34 51°21.19 2°35.24 15 342 18.4 100700 84
2003-09-22 07:44:38 51°21.2 2°35.21 15.8 341 18.4 100690 84
2003-09-22 07:44:44 51°21.2 2°35.18 16.6 342 18.4 100690 84
2003-09-22 07:44:48 51°21.2 2°35.16 15.8 344 18.4 100690 84
2003-09-22 07:44:54 51°21.2 2°35.12 16.5 345 18.4 100690 84
2003-09-22 07:44:58 51°21.21 2°35.1 16.6 341 18.4 100690 84
2003-09-22 07:45:04 51°21.21 2°35.07 16.4 344 18.4 100690 84
2003-09-22 07:45:10 51°21.21 2°35.03 16.3 340 18.4 100690 84
2003-09-22 07:45:14 51°21.21 2°35.01 15.2 342 18.4 100700 84
2003-09-22 07:45:18 51°21.22 2°34.98 16.1 342 18.4 100700 84
2003-09-22 07:45:24 51°21.22 2°34.95 16.6 341 18.4 100700 84
2003-09-22 07:45:28 51°21.22 2°34.93 15.5 347 18.4 100690 84
2003-09-22 07:45:34 51°21.22 2°34.89 16.3 342 18.4 100690 84
2003-09-22 07:45:38 51°21.23 2°34.87 16.3 342 18.4 100690 84
2003-09-22 07:45:44 51°21.23 2°34.84 16.6 339 18.4 100700 85
2003-09-22 07:45:48 51°21.23 2°34.81 15.8 337 18.4 100700 85
2003-09-22 07:45:54 51°21.24 2°34.78 16.2 339 18.4 100700 85
2003-09-22 07:45:58 51°21.24 2°34.76 16 340 18.4 100690 85
2003-09-22 07:46:04 51°21.24 2°34.72 15.3 345 18.4 100700 84
2003-09-22 07:46:08 51°21.24 2°34.7 15.3 344 18.4 100700 84
2003-09-22 07:46:14 51°21.25 2°34.66 15 342 18.4 100690 84
2003-09-22 07:46:18 51°21.25 2°34.64 14.9 340 18.4 100690 84
2003-09-22 07:46:24 51°21.25 2°34.61 14.9 343 18.3 100690 85
2003-09-22 07:46:30 51°21.26 2°34.57 15.7 343 18.3 100690 85
2003-09-22 07:46:34 51°21.26 2°34.55 14.9 351 18.3 100690 85
2003-09-22 07:46:38 51°21.26 2°34.53 14.8 341 18.4 100700 85
2003-09-22 07:46:44 51°21.26 2°34.49 14.7 341 18.4 100700 85
2003-09-22 07:46:48 51°21.26 2°34.47 14.8 348 18.3 100690 85
2003-09-22 07:46:54 51°21.27 2°34.44 15 346 18.3 100690 85
2003-09-22 07:46:58 51°21.27 2°34.41 15.4 346 18.3 100700 85
2003-09-22 07:47:04 51°21.27 2°34.38 16.3 346 18.4 100710 85
2003-09-22 07:47:08 51°21.28 2°34.36 15.4 344 18.4 100710 85
2003-09-22 07:47:14 51°21.28 2°34.32 16 348 18.4 100710 85
2003-09-22 07:47:18 51°21.28 2°34.3 14.6 344 18.3 100700 85
2003-09-22 07:47:24 51°21.28 2°34.27 16.6 346 18.4 100710 85
2003-09-22 07:47:30 51°21.29 2°34.23 15.4 348 18.4 100710 85
2003-09-22 07:47:34 51°21.29 2°34.21 14.9 346 18.4 100700 85
2003-09-22 07:47:38 51°21.29 2°34.19 15.8 343 18.4 100700 85
2003-09-22 07:47:44 51°21.29 2°34.15 16.7 343 18.4 100700 85
2003-09-22 07:47:48 51°21.3 2°34.13 14.9 345 18.3 100700 85
2003-09-22 07:47:54 51°21.3 2°34.1 15.7 342 18.3 100700 85
2003-09-22 07:47:58 51°21.3 2°34.07 14.6 348 18.3 100690 85
2003-09-22 07:48:04 51°21.31 2°34.04 14.6 341 18.3 100690 85
2003-09-22 07:48:08 51°21.31 2°34.02 15.9 345 18.3 100690 85
2003-09-22 07:48:14 51°21.31 2°33.98 15.5 344 18.3 100690 85
2003-09-22 07:48:18 51°21.31 2°33.96 15.1 343 18.3 100700 85
2003-09-22 07:48:22 51°21.32 2°33.94 16 344 18.3 100700 85
2003-09-22 07:48:28 51°21.32 2°33.9 16.4 342 18.3 100700 86
2003-09-22 07:48:34 51°21.33 2°33.87 15.1 340 18.3 100690 86
2003-09-22 07:48:40 51°21.33 2°33.83 15.8 338 18.3 100690 86
2003-09-22 07:48:44 51°21.34 2°33.81 15.3 337 18.3 100700 86
2003-09-22 07:48:48 51°21.34 2°33.79 15.6 336 18.3 100700 86
2003-09-22 07:48:54 51°21.35 2°33.76 14.4 335 18.3 100700 86
2003-09-22 07:48:58 51°21.36 2°33.74 14.8 335 18.3 100690 86
2003-09-22 07:49:04 51°21.37 2°33.71 15.2 333 18.3 100690 86
2003-09-22 07:49:08 51°21.38 2°33.69 15.4 326 18.3 100690 86
2003-09-22 07:49:14 51°21.39 2°33.66 14.7 330 18.3 100690 86
2003-09-22 07:49:18 51°21.4 2°33.64 14.3 327 18.3 100690 86
2003-09-22 07:49:24 51°21.41 2°33.61 15.6 320 18.3 100690 86
2003-09-22 07:49:28 51°21.42 2°33.59 15.3 316 18.3 100700 86
2003-09-22 07:49:34 51°21.44 2°33.57 14.7 40 18.3 100700 86
2003-09-22 07:49:38 51°21.45 2°33.55 14.6 227 18.3 100690 86
2003-09-22 07:49:44 51°21.46 2°33.53 13.8 314 18.3 100690 86
2003-09-22 07:49:48 51°21.47 2°33.52 13.3 312 18.3 100680 86
2003-09-22 07:49:54 51°21.49 2°33.5 13 313 18.2 100680 86
2003-09-22 07:49:58 51°21.5 2°33.48 12.5 42 18.2 100680 86
2003-09-22 07:50:04 51°21.52 2°33.46 13.1 312 18.2 100680 86
2003-09-22 07:50:08 51°21.54 2°33.45 13.3 317 18.2 100680 86
2003-09-22 07:50:14 51°21.55 2°33.43 13.4 312 18.2 100680 86
2003-09-22 07:50:18 51°21.57 2°33.42 12.4 314 18.2 100690 86
2003-09-22 07:50:24 51°21.59 2°33.4 12.6 306 18.2 100690 86
2003-09-22 07:50:28 51°21.6 2°33.39 12.9 313 18.2 100690 86
2003-09-22 07:50:34 51°21.62 2°33.37 14.6 309 18.2 100690 86
2003-09-22 07:50:38 51°21.63 2°33.36 13.3 308 18.2 100700 86
2003-09-22 07:50:44 51°21.65 2°33.35 12.6 308 18.2 100700 86
2003-09-22 07:50:48 51°21.66 2°33.33 13.1 314 18.2 100690 86
2003-09-22 07:50:54 51°21.68 2°33.32 13 312 18.2 100690 86
2003-09-22 07:50:58 51°21.7 2°33.31 13.9 312 18.2 100700 86
2003-09-22 07:51:04 51°21.72 2°33.29 12.8 309 18.2 100700 86
2003-09-22 07:51:08 51°21.73 2°33.28 12.7 309 18.2 100700 86
2003-09-22 07:51:14 51°21.75 2°33.26 13.3 305 18.2 100700 86
2003-09-22 07:51:18 51°21.76 2°33.25 11.8 308 18.2 100700 86
2003-09-22 07:51:24 51°21.78 2°33.23 11.5 307 18.2 100690 86
2003-09-22 07:51:28 51°21.8 2°33.22 12.6 310 18.2 100690 86
2003-09-22 07:51:34 51°21.82 2°33.21 13.4 312 18.1 100690 86
2003-09-22 07:51:38 51°21.83 2°33.2 12.4 307 18.1 100690 86
2003-09-22 07:51:44 51°21.85 2°33.19 12.6 307 18.1 100690 86
2003-09-22 07:51:48 51°21.86 2°33.18 12.6 301 18.1 100690 86
2003-09-22 07:51:54 51°21.88 2°33.16 11.8 301 18.1 100700 86
2003-09-22 07:51:58 51°21.9 2°33.16 11.9 304 18.1 100700 86
2003-09-22 07:52:04 51°21.92 2°33.14 12.5 300 18.1 100710 86
2003-09-22 07:52:08 51°21.93 2°33.13 12.2 304 18.1 100710 86
2003-09-22 07:52:14 51°21.96 2°33.12 11.1 297 18.1 100710 86
2003-09-22 07:52:18 51°21.97 2°33.11 12.7 298 18.1 100700 86
2003-09-22 07:52:24 51°21.99 2°33.1 12.3 300 18.1 100700 86
2003-09-22 07:52:28 51°22.01 2°33.09 10.9 297 18.1 100700 86
2003-09-22 07:52:34 51°22.03 2°33.08 10.5 294 18.1 100700 86
2003-09-22 07:52:38 51°22.04 2°33.08 9.9 295 18.1 100700 86
2003-09-22 07:52:44 51°22.06 2°33.07 9.9 294 18.1 100700 86
2003-09-22 07:52:48 51°22.08 2°33.06 9.5 287 18.1 100700 86
2003-09-22 07:52:54 51°22.1 2°33.06 8.7 294 18.1 100710 86
2003-09-22 07:52:58 51°22.12 2°33.05 9.7 296 18.1 100710 86
2003-09-22 07:53:04 51°22.14 2°33.05 9.1 289 18.1 100710 86
2003-09-22 07:53:10 51°22.16 2°33.05 8.5 292 18.1 100710 86
2003-09-22 07:53:14 51°22.18 2°33.04 8.7 299 18.1 100710 86
2003-09-22 07:53:18 51°22.19 2°33.04 8.6 294 18.1 100710 86
2003-09-22 07:53:24 51°22.21 2°33.04 9 299 18.1 100710 86
2003-09-22 07:53:28 51°22.23 2°33.03 9.8 297 18.1 100720 86
2003-09-22 07:53:34 51°22.25 2°33.03 9.6 299 18.1 100720 86
2003-09-22 07:53:38 51°22.27 2°33.02 9.5 291 18.1 100710 86
2003-09-22 07:53:44 51°22.29 2°33.02 9.1 300 18.1 100710 87
2003-09-22 07:53:48 51°22.3 2°33.02 9.3 296 18.1 100710 87
2003-09-22 07:53:54 51°22.33 2°33.02 9.4 301 18.1 100710 87
2003-09-22 07:53:58 51°22.34 2°33.01 8.4 304 18.1 100710 87
2003-09-22 07:54:04 51°22.37 2°33.01 8.4 299 18.1 100710 87
2003-09-22 07:54:08 51°22.38 2°33.01 9.1 293 18.1 100710 87
2003-09-22 07:54:14 51°22.4 2°33 8.9 290 18.1 100710 87
2003-09-22 07:54:18 51°22.42 2°33 8.8 294 18.1 100710 87
2003-09-22 07:54:24 51°22.44 2°32.99 9.6 295 18.1 100710 87
2003-09-22 07:54:28 51°22.46 2°32.99 8.9 303 18.1 100710 87
2003-09-22 07:54:34 51°22.48 2°32.98 9.1 297 18.2 100710 87
2003-09-22 07:54:38 51°22.49 2°32.98 9.5 305 18.2 100710 87
2003-09-22 07:54:44 51°22.52 2°32.97 9.9 310 18.2 100710 87
2003-09-22 07:54:48 51°22.53 2°32.96 11.5 310 18.2 100710 87
2003-09-22 07:54:54 51°22.55 2°32.96 11.5 306 18.2 100710 87
2003-09-22 07:54:58 51°22.57 2°32.95 11.8 305 18.2 100710 87
2003-09-22 07:55:04 51°22.59 2°32.94 10.7 307 18.2 100690 87
2003-09-22 07:55:10 51°22.61 2°32.93 11.2 305 18.2 100690 87
2003-09-22 07:55:14 51°22.63 2°32.93 11.5 305 18.2 100700 87
2003-09-22 07:55:18 51°22.64 2°32.92 11.5 308 18.2 100700 87
2003-09-22 07:55:24 51°22.66 2°32.91 10.9 305 18.2 100690 87
2003-09-22 07:55:28 51°22.68 2°32.9 12.2 307 18.2 100690 87
2003-09-22 07:55:34 51°22.7 2°32.89 12.3 304 18.2 100690 87
2003-09-22 07:55:38 51°22.71 2°32.88 10.4 303 18.2 100700 87
2003-09-22 07:55:44 51°22.73 2°32.87 10.7 308 18.2 100700 87
2003-09-22 07:55:48 51°22.75 2°32.87 11.6 302 18.2 100700 87
2003-09-22 07:55:54 51°22.77 2°32.86 11.5 303 18.2 100700 87
2003-09-22 07:55:58 51°22.78 2°32.85 12.7 303 18.1 100700 87
2003-09-22 07:56:04 51°22.81 2°32.84 12.5 303 18.1 100700 87
2003-09-22 07:56:08 51°22.82 2°32.84 12.1 305 18.1 100700 87
2003-09-22 07:56:14 51°22.84 2°32.83 12.1 299 18.1 100700 87
2003-09-22 07:56:18 51°22.86 2°32.82 12.4 297 18.1 100700 87
2003-09-22 07:56:24 51°22.88 2°32.81 11 298 18.1 100700 87
2003-09-22 07:56:28 51°22.89 2°32.8 10.6 290 18.1 100690 87
2003-09-22 07:56:34 51°22.91 2°32.79 11.4 301 18.1 100690 87
2003-09-22 07:56:38 51°22.93 2°32.79 10.1 300 18.1 100700 87
2003-09-22 07:56:44 51°22.95 2°32.78 9.9 293 18.1 100690 87
2003-09-22 07:56:48 51°22.97 2°32.77 9.7 306 18.1 100690 87
2003-09-22 07:56:54 51°22.99 2°32.76 11.2 304 18.1 100690 87
2003-09-22 07:56:58 51°23 2°32.75 11.8 310 18.1 100700 87
2003-09-22 07:57:04 51°23.02 2°32.74 13.4 310 18.1 100700 87
2003-09-22 07:57:08 51°23.03 2°32.72 13.2 311 18.1 100700 87
2003-09-22 07:57:14 51°23.05 2°32.7 14.4 317 18.1 100700 87
2003-09-22 07:57:18 51°23.06 2°32.69 14.7 227 18.1 100700 87
2003-09-22 07:57:24 51°23.08 2°32.66 14 316 18.1 100700 87
2003-09-22 07:57:28 51°23.09 2°32.65 15.5 322 18.1 100690 87
2003-09-22 07:57:34 51°23.1 2°32.62 15 322 18.1 100680 87
2003-09-22 07:57:38 51°23.11 2°32.6 15.1 323 18.1 100680 87
2003-09-22 07:57:44 51°23.12 2°32.57 15.1 322 18.1 100680 87
2003-09-22 07:57:50 51°23.13 2°32.54 15.3 320 18.1 100680 87
2003-09-22 07:57:54 51°23.14 2°32.52 15.1 327 18.1 100680 87
2003-09-22 07:57:58 51°23.14 2°32.5 14.1 325 18.1 100680 87
2003-09-22 07:58:04 51°23.15 2°32.47 14.6 323 18.1 100680 87
2003-09-22 07:58:08 51°23.16 2°32.45 14.6 323 18.1 100670 87
2003-09-22 07:58:14 51°23.17 2°32.42 14.7 329 18.1 100670 87
2003-09-22 07:58:18 51°23.18 2°32.4 15.7 330 18.1 100670 87